KJ7AZ-3 Weather Reports


Display with metric or nautical units.
time (UTC)temp
F
wind
direction
speed
MPH
gust
MPH
rain 1hr
in
rain 24hr
in
rain mn
in
humidity
%
barometer
mb
20260831184827 88 103 0.0 2.0 0.00 0.00 0.00
20260831183327 90 108 0.0 0.0 0.00 0.00 0.00
20260831181825 91 58 0.0 1.0 0.00 0.00 0.00
20260831180325 91 28 3.0 1.0 0.00 0.00 0.00
20260831174823 92 359 4.0 4.0 0.00 0.00 0.00
20260831163320 89 103 1.0 0.0 0.00 0.00 0.00
20260831161819 89 39 0.0 0.0 0.00 0.00 0.00
20260831160319 90 56 2.0 0.0 0.00 0.00 0.00
20260831154819 90 42 0.0 0.0 0.00 0.00 0.00
20260831153319 85 101 0.0 0.0 0.00 0.00 0.00
20260831143317 81 122 1.0 0.0 0.00 0.00 0.00
20260831141817 79 111 0.0 0.0 0.00 0.00 0.00
20260831093314 66 101 0.0 0.0 0.00 0.00 0.00
20260831091814 67 101 0.0 0.0 0.00 0.00 0.00
20260831090314 67 101 0.0 0.0 0.00 0.00 0.00
20260831084813 68 101 0.0 0.0 0.00 0.00 0.00
20260831083313 68 101 0.0 0.0 0.00 0.00 0.00
20260831081813 68 101 0.0 0.0 0.00 0.00 0.00
20260831080314 68 101 0.0 0.0 0.00 0.00 0.00
20260831074812 69 101 0.0 0.0 0.00 0.00 0.00
20260831073312 69 101 0.0 0.0 0.00 0.00 0.00
20260831071812 70 226 0.0 0.0 0.00 0.00 0.00
20260831070311 70 226 0.0 0.0 0.00 0.00 0.00
20260831064812 69 226 0.0 0.0 0.00 0.00 0.00
20260831063311 69 226 0.0 0.0 0.00 0.00 0.00
20260831060310 70 226 0.0 0.0 0.00 0.00 0.00
20260831053312 69 73 0.0 0.0 0.00 0.00 0.00
20260831051810 71 73 0.0 0.0 0.00 0.00 0.00
20260831050309 73 136 0.0 0.0 0.00 0.00 0.00
20260831044808 73 136 0.0 0.0 0.00 0.00 0.00
20260831043307 75 136 0.0 0.0 0.00 0.00 0.00
20260831041806 76 339 1.0 0.0 0.00 0.00 0.00
20260831040306 76 226 0.0 0.0 0.00 0.00 0.00
20260831034805 77 226 0.0 0.0 0.00 0.00 0.00
20260831033305 77 152 0.0 0.0 0.00 0.00 0.00
20260831031804 77 322 0.0 0.0 0.00 0.00 0.00
20260831030304 77 339 4.0 1.0 0.00 0.00 0.00
20260831024803 76 294 1.0 0.0 0.00 0.00 0.00
20260831023303 76 122 0.0 0.0 0.00 0.00 0.00
20260831021802 77 122 0.0 0.0 0.00 0.00 0.00
20260831020302 76 97 0.0 0.0 0.00 0.00 0.00
20260831014801 77 94 1.0 1.0 0.00 0.00 0.00
20260831013300 77 117 0.0 0.0 0.00 0.00 0.00
20260831010259 80 98 2.0 2.0 0.00 0.00 0.00
20260831004758 81 117 2.0 0.0 0.00 0.00 0.00
20260831003257 75 129 3.0 4.0 0.00 0.00 0.00
20260831001757 74 139 1.0 3.0 0.00 0.00 0.00
20260831000256 87 87 7.0 9.0 0.00 0.00 0.00
20260830233253 92 342 2.0 4.0 0.00 0.00 0.00
20260830231752 97 44 1.0 0.0 0.00 0.00 0.00
20260830230251 95 322 1.0 6.0 0.00 0.00 0.00
20260830224751 94 352 2.0 2.0 0.00 0.00 0.00
20260830223249 97 264 3.0 4.0 0.00 0.00 0.00
20260830221748 94 8 1.0 1.0 0.00 0.00 0.00
20260830220247 99 338 4.0 7.0 0.00 0.00 0.00
20260830213246 96 20 0.0 0.0 0.00 0.00 0.00
20260830210243 100 288 3.0 4.0 0.00 0.00 0.00
20260830204742 98 32 6.0 6.0 0.00 0.00 0.00
20260830203241 96 23 2.0 0.0 0.00 0.00 0.00
20260830201740 96 338 0.0 0.0 0.00 0.00 0.00
20260830200240 93 295 3.0 0.0 0.00 0.00 0.00
20260830194738 95 354 1.0 0.0 0.00 0.00 0.00
20260830193237 94 186 2.0 1.0 0.00 0.00 0.00
20260830190235 92 256 2.0 5.0 0.00 0.00 0.00